CEB555 EDDB-OBBI

Flight info

Callsign CEB555
Flight time N/A
Altitude 37000
Route ARSAP4N ARSAP Y210 OLUMA T710 VAGON P193 KELEL DCT PERIT DCT IBINU DCT APROB DCT ADORU UG80 EKI UW81 YAYLA UL854 KULAR UT39 TOMBI DCT APLON L550 STEPA/N0459F390 L550 DATOK J981 NOVPA DCT RUKET N697 HIL A788 LOXOM N318 LADNA
Aircraft A20N/M-SDE2E3FGHIRWXY/LB1

Departure

Time N/A
Airport Berlin Brandenburg Airport (EDDB)

Arrival

Time 2026-04-27 20:02
Airport Bahrain International Airport (OBBI)
Time Latitude Longitude Altitude Speed Heading
2026-04-27 19:00 27.89975 43.91360 37000 ft 458 kts 77°
2026-04-27 19:00 27.91419 43.98367 37000 ft 458 kts 77°
2026-04-27 19:01 27.92858 44.05371 37000 ft 457 kts 77°
2026-04-27 19:01 27.93505 44.12501 37000 ft 457 kts 94°
2026-04-27 19:02 27.92062 44.19443 37000 ft 456 kts 114°
2026-04-27 19:02 27.89229 44.25866 37000 ft 457 kts 118°
2026-04-27 19:03 27.86152 44.32152 37000 ft 457 kts 119°
2026-04-27 19:03 27.83081 44.38395 37000 ft 457 kts 119°
2026-04-27 19:04 27.80024 44.44688 37000 ft 457 kts 118°
2026-04-27 19:04 27.76979 44.50997 37000 ft 457 kts 118°
2026-04-27 19:05 27.73936 44.57302 37000 ft 457 kts 118°
2026-04-27 19:05 27.70891 44.63597 37000 ft 457 kts 118°
2026-04-27 19:06 27.67842 44.69890 37000 ft 457 kts 118°
2026-04-27 19:06 27.65410 44.75171 36999 ft 457 kts 112°
2026-04-27 19:07 27.63613 44.82034 37000 ft 457 kts 103°
2026-04-27 19:07 27.62275 44.89037 37000 ft 457 kts 101°
2026-04-27 19:08 27.61022 44.96064 37000 ft 457 kts 101°
2026-04-27 19:08 27.59756 45.03087 37000 ft 457 kts 102°
2026-04-27 19:09 27.58467 45.10103 37000 ft 457 kts 102°
2026-04-27 19:09 27.57168 45.17112 37000 ft 457 kts 102°
2026-04-27 19:10 27.55863 45.24129 37000 ft 457 kts 102°
2026-04-27 19:10 27.54561 45.31095 37000 ft 457 kts 102°
2026-04-27 19:11 27.53246 45.38111 37000 ft 457 kts 102°
2026-04-27 19:11 27.51931 45.45110 37000 ft 457 kts 102°
2026-04-27 19:12 27.50612 45.52110 37000 ft 457 kts 102°
2026-04-27 19:12 27.49290 45.59109 37000 ft 457 kts 102°
2026-04-27 19:13 27.47964 45.66106 37000 ft 457 kts 102°
2026-04-27 19:13 27.46634 45.73102 37000 ft 457 kts 102°
2026-04-27 19:14 27.45302 45.80092 37000 ft 457 kts 102°
2026-04-27 19:14 27.43966 45.87083 37000 ft 456 kts 102°
2026-04-27 19:15 27.42627 45.94067 37000 ft 456 kts 102°
2026-04-27 19:15 27.41285 46.01050 37000 ft 456 kts 102°
2026-04-27 19:16 27.39939 46.08032 37000 ft 456 kts 102°
2026-04-27 19:16 27.38599 46.14965 37000 ft 456 kts 102°
2026-04-27 19:17 27.37244 46.21952 37000 ft 456 kts 102°
2026-04-27 19:17 27.35888 46.28929 37000 ft 456 kts 102°
2026-04-27 19:18 27.34592 46.35912 37000 ft 456 kts 101°
2026-04-27 19:18 27.33377 46.42917 37000 ft 456 kts 101°
2026-04-27 19:19 27.32167 46.49929 37000 ft 456 kts 101°
2026-04-27 19:19 27.30943 46.56934 37000 ft 456 kts 101°
2026-04-27 19:20 27.29711 46.63929 37000 ft 456 kts 101°
2026-04-27 19:20 27.28473 46.70931 37000 ft 456 kts 101°
2026-04-27 19:21 27.27232 46.77931 37000 ft 456 kts 101°
2026-04-27 19:21 27.25988 46.84926 37000 ft 456 kts 101°
2026-04-27 19:22 27.24740 46.91921 37000 ft 456 kts 101°
2026-04-27 19:22 27.23499 46.98859 37000 ft 456 kts 101°
2026-04-27 19:23 27.22244 47.05850 37000 ft 456 kts 101°
2026-04-27 19:23 27.20987 47.12837 37000 ft 456 kts 101°
2026-04-27 19:24 27.19726 47.19824 37000 ft 456 kts 101°
2026-04-27 19:24 27.18462 47.26801 37000 ft 456 kts 101°
2026-04-27 19:25 27.17195 47.33778 37000 ft 456 kts 101°
2026-04-27 19:25 27.15924 47.40761 37000 ft 456 kts 102°
2026-04-27 19:26 27.14650 47.47735 37000 ft 456 kts 102°
2026-04-27 19:26 27.13371 47.54711 37000 ft 456 kts 102°
2026-04-27 19:27 27.12085 47.61677 37000 ft 456 kts 102°
2026-04-27 19:27 27.10793 47.68646 37000 ft 456 kts 102°
2026-04-27 19:28 27.09506 47.75567 37000 ft 456 kts 102°
2026-04-27 19:28 27.08209 47.82530 37000 ft 456 kts 102°
2026-04-27 19:29 27.06907 47.89493 37000 ft 456 kts 102°
2026-04-27 19:29 27.05596 47.96453 37000 ft 455 kts 102°
2026-04-27 19:30 27.04147 48.03270 36999 ft 455 kts 104°
2026-04-27 19:30 27.02601 48.10112 37000 ft 455 kts 104°
2026-04-27 19:31 27.01046 48.16993 37000 ft 455 kts 104°
2026-04-27 19:31 26.99500 48.23885 37000 ft 455 kts 104°
2026-04-27 19:32 26.97960 48.30769 37000 ft 455 kts 104°
2026-04-27 19:32 26.96418 48.37652 37000 ft 455 kts 104°
2026-04-27 19:33 26.94873 48.44526 37000 ft 454 kts 104°
2026-04-27 19:33 26.93326 48.51394 37000 ft 455 kts 104°
2026-04-27 19:34 26.91773 48.58269 37000 ft 455 kts 104°
2026-04-27 19:34 26.90218 48.65136 37000 ft 455 kts 104°
2026-04-27 19:35 26.88659 48.72003 37000 ft 455 kts 104°
2026-04-27 19:35 26.87220 48.78896 37000 ft 455 kts 102°
2026-04-27 19:36 26.85986 48.85794 37000 ft 454 kts 101°
2026-04-27 19:36 26.84765 48.92746 37000 ft 454 kts 101°
2026-04-27 19:37 26.83520 48.99681 37000 ft 454 kts 101°
2026-04-27 19:37 26.82259 49.06609 37000 ft 454 kts 102°
2026-04-27 19:38 26.80989 49.13542 37000 ft 454 kts 102°
2026-04-27 19:38 26.79716 49.20472 37000 ft 454 kts 102°
2026-04-27 19:39 26.78439 49.27404 37000 ft 454 kts 102°
2026-04-27 19:39 26.77162 49.34326 37000 ft 454 kts 102°
2026-04-27 19:40 26.75551 49.41164 37001 ft 454 kts 107°
2026-04-27 19:40 26.73603 49.47886 37000 ft 454 kts 108°
2026-04-27 19:41 26.71589 49.54588 37000 ft 454 kts 109°
2026-04-27 19:41 26.69570 49.61280 37000 ft 454 kts 109°
2026-04-27 19:41 26.68574 49.64590 36838 ft 455 kts 109°
2026-04-27 19:42 26.67567 49.67942 36263 ft 455 kts 108°
2026-04-27 19:42 26.66559 49.71304 35560 ft 457 kts 108°
2026-04-27 19:42 26.65545 49.74686 34848 ft 459 kts 108°
2026-04-27 19:42 26.64528 49.78074 34139 ft 461 kts 108°
2026-04-27 19:43 26.63504 49.81482 33418 ft 463 kts 109°
2026-04-27 19:43 26.62477 49.84896 32669 ft 463 kts 109°
2026-04-27 19:43 26.61450 49.88306 31691 ft 462 kts 109°
2026-04-27 19:43 26.60421 49.91714 30547 ft 464 kts 109°
2026-04-27 19:44 26.59385 49.95141 29333 ft 466 kts 109°
2026-04-27 19:44 26.58343 49.98576 28064 ft 468 kts 109°
2026-04-27 19:44 26.57291 50.02028 26729 ft 471 kts 109°
2026-04-27 19:44 26.56235 50.05501 25325 ft 473 kts 109°
2026-04-27 19:45 26.55176 50.08990 23849 ft 475 kts 109°
2026-04-27 19:45 26.54129 50.12436 22535 ft 473 kts 109°
2026-04-27 19:45 26.53080 50.15888 21505 ft 463 kts 109°
2026-04-27 19:45 26.52057 50.19252 20506 ft 453 kts 109°
2026-04-27 19:46 26.51057 50.22540 19633 ft 440 kts 109°
2026-04-27 19:46 26.50085 50.25730 18800 ft 429 kts 109°
2026-04-27 19:46 26.49136 50.28841 17973 ft 419 kts 109°
2026-04-27 19:46 26.48208 50.31885 17170 ft 409 kts 109°
2026-04-27 19:47 26.47373 50.34889 16391 ft 405 kts 103°
2026-04-27 19:47 26.47079 50.38013 15579 ft 406 kts 88°
2026-04-27 19:47 26.47183 50.39270 15251 ft 407 kts 81°
2026-04-27 19:48 26.47325 50.40087 15033 ft 407 kts 76°
2026-04-27 19:48 26.48217 50.43081 14222 ft 406 kts 68°
2026-04-27 19:48 26.49284 50.45990 13410 ft 405 kts 67°
2026-04-27 19:49 26.50371 50.48882 12589 ft 403 kts 67°
2026-04-27 19:49 26.51446 50.51759 11779 ft 400 kts 67°
2026-04-27 19:49 26.52501 50.54601 11236 ft 391 kts 67°
2026-04-27 19:49 26.53515 50.57353 11028 ft 373 kts 68°
2026-04-27 19:50 26.54234 50.60043 10990 ft 352 kts 82°
2026-04-27 19:50 26.54188 50.62658 11170 ft 325 kts 101°
2026-04-27 19:50 26.53434 50.64951 11198 ft 305 kts 121°
2026-04-27 19:50 26.52152 50.66726 11200 ft 294 kts 139°
2026-04-27 19:51 26.50480 50.68021 11195 ft 293 kts 151°
2026-04-27 19:51 26.48709 50.69130 11129 ft 289 kts 148°
2026-04-27 19:51 26.47133 50.70507 10674 ft 290 kts 134°
2026-04-27 19:51 26.45799 50.72203 10216 ft 291 kts 135°
2026-04-27 19:52 26.44178 50.73520 9747 ft 290 kts 156°
2026-04-27 19:52 26.42867 50.73928 9416 ft 290 kts 175°
2026-04-27 19:52 26.40309 50.73419 9203 ft 282 kts 204°
2026-04-27 19:52 26.38688 50.72195 8829 ft 284 kts 230°
2026-04-27 19:53 26.37944 50.68791 8180 ft 277 kts 286°
2026-04-27 19:53 26.38770 50.66939 8029 ft 265 kts 302°
2026-04-27 19:53 26.39773 50.65287 7860 ft 250 kts 304°
2026-04-27 19:54 26.40737 50.63728 7652 ft 239 kts 304°
2026-04-27 19:54 26.41655 50.62211 7317 ft 234 kts 303°
2026-04-27 19:54 26.42548 50.60705 6937 ft 232 kts 303°
2026-04-27 19:54 26.43424 50.59206 6540 ft 230 kts 302°
2026-04-27 19:55 26.44291 50.57710 6156 ft 228 kts 302°
2026-04-27 19:55 26.45142 50.56233 5819 ft 225 kts 302°
2026-04-27 19:55 26.45978 50.54781 5607 ft 219 kts 302°
2026-04-27 19:55 26.46763 50.53365 5413 ft 211 kts 297°
2026-04-27 19:56 26.47168 50.51816 5056 ft 206 kts 271°
2026-04-27 19:56 26.46857 50.50301 4654 ft 201 kts 240°
2026-04-27 19:56 26.45902 50.49185 4198 ft 200 kts 213°
2026-04-27 19:56 26.44675 50.48451 3882 ft 201 kts 206°
2026-04-27 19:57 26.43409 50.47796 3640 ft 200 kts 205°
2026-04-27 19:57 26.42157 50.47154 3452 ft 193 kts 205°
2026-04-27 19:57 26.40983 50.46546 3220 ft 181 kts 205°
2026-04-27 19:57 26.39861 50.45960 2977 ft 177 kts 206°
2026-04-27 19:58 26.38710 50.45501 2767 ft 176 kts 184°
2026-04-27 19:58 26.37567 50.45905 2519 ft 176 kts 149°
2026-04-27 19:58 26.36642 50.46806 2241 ft 177 kts 129°
2026-04-27 19:58 26.35938 50.47932 2197 ft 177 kts 123°
2026-04-27 19:59 26.35276 50.49092 2190 ft 178 kts 123°
2026-04-27 19:59 26.34611 50.50253 2194 ft 178 kts 123°
2026-04-27 19:59 26.33946 50.51409 2193 ft 177 kts 123°
2026-04-27 19:59 26.33279 50.52563 2046 ft 177 kts 123°
2026-04-27 20:00 26.32641 50.53674 1820 ft 168 kts 123°
2026-04-27 20:00 26.32019 50.54759 1581 ft 165 kts 123°
2026-04-27 20:00 26.31393 50.55850 1354 ft 165 kts 123°
2026-04-27 20:00 26.30775 50.56926 1137 ft 165 kts 123°
2026-04-27 20:01 26.30173 50.57975 920 ft 161 kts 123°
2026-04-27 20:01 26.29575 50.59017 699 ft 159 kts 123°
2026-04-27 20:01 26.28987 50.60054 488 ft 158 kts 122°
2026-04-27 20:01 26.28402 50.61087 299 ft 157 kts 122°
2026-04-27 20:02 26.27837 50.62074 49 ft 148 kts 123°
2026-04-27 20:02 26.27316 50.62980 18 ft 130 kts 123°
2026-04-27 20:02 26.26909 50.63667 16 ft 80 kts 123°
2026-04-27 20:02 26.26704 50.64022 17 ft 29 kts 122°
2026-04-27 20:03 26.26654 50.64111 20 ft 22 kts 122°
2026-04-27 20:03 26.26503 50.64340 15 ft 43 kts 150°
2026-04-27 20:03 26.26424 50.64309 16 ft 10 kts 250°
2026-04-27 20:03 26.26400 50.64273 16 ft 0 kts 211°
2026-04-27 20:05 26.26399 50.64273 16 ft 0 kts 211°
2026-04-27 20:05 26.26378 50.64234 16 ft 13 kts 262°
2026-04-27 20:05 26.26446 50.64116 16 ft 21 kts 301°
2026-04-27 20:05 26.26520 50.63983 19 ft 20 kts 304°
2026-04-27 20:06 26.26597 50.63850 17 ft 19 kts 302°
2026-04-27 20:06 26.26589 50.63761 17 ft 12 kts 211°
2026-04-27 20:06 26.26575 50.63689 17 ft 10 kts 290°
2026-04-27 20:06 26.26610 50.63620 18 ft 10 kts 302°
2026-04-27 20:07 26.26650 50.63552 18 ft 11 kts 303°
2026-04-27 20:07 26.26635 50.63500 18 ft 8 kts 207°
2026-04-27 20:07 26.26595 50.63472 18 ft 0 kts 212°